[[{"header":{"parameterUnit":"m.s-1","parameterCategory":1,"la1":30.2991,"la2":30.254,"lo1":-89.0895,"lo2":-89.0444,"dy":0.0017,"dx":0.0017,"nx":28,"ny":28,"refTime":"2024-07-23T03:00:00:Z","depth":0,"parameterNumber":2,"parameterNumberName":"U-component_of_WINDS"},"data":[0,0,0,0,0,0,0,0,0,0,0,0,0,0,0,0,0,0,0,0,0,0,0,0,0,0,0,0,0,0,0,0,0,0,0,0,0,0,0,0,0,0,0,0,0,0,0,0,0,0,0,0,0,0,0,0,0,0,0.2499,0.2499,0,0.2532,0.2533,0.2533,0.2565,0.2565,0.2566,0.2566,0.26,0.26,0.2601,0,0,0,0,0,0,0,0,0,0,0,0,0,0.246,0.246,0.2499,0.2499,0.2499,0.2532,0.2533,0.2533,0.2565,0.2565,0.2566,0.2566,0.2599,0.26,0.2601,0,0,0,0,0,0,0,0,0,0,0,0,0,0.2483,0.2461,0.2498,0.2519,0.2521,0.2532,0.2533,0.2533,0.2565,0.2565,0.2566,0.2566,0.2599,0.26,0.2601,0.2593,0,0,0.2603,0.2603,0,0,0,0,0,0,0,0,0.2482,0.2485,0.2516,0.2518,0.252,0.2545,0.2531,0.2553,0.2565,0.2548,0.2566,0.2567,0.2581,0.2583,0.2588,0.2595,0.2596,0.2603,0.2604,0.2604,0.2604,0,0,0,0,0,0,0,0.248,0.2483,0.2512,0.2516,0.2519,0.2526,0.253,0.2536,0.2561,0.255,0.2552,0.2556,0.2582,0.2587,0.2589,0.2597,0.2603,0.2604,0.2604,0.2604,0.2598,0.2597,0,0,0,0,0,0,0.2476,0.2482,0.2511,0.2513,0.2502,0.2526,0.2531,0.2536,0.2561,0.2565,0.2555,0.2557,0.2586,0.2588,0.259,0.2583,0.2604,0.2605,0.2605,0.2598,0.2598,0.2597,0,0,0,0,0,0,0.2475,0.2478,0.2509,0.2498,0.2503,0.2526,0.2532,0.2537,0.2542,0.2565,0.2569,0.2556,0.2586,0.2589,0.2592,0.2584,0.2605,0.2606,0.2599,0.2598,0.2597,0.2568,0,0,0,0,0,0,0.2473,0.2477,0.2475,0.2498,0.2503,0.2511,0.2532,0.2537,0.2543,0.2546,0.2567,0.2571,0.2587,0.2591,0.2593,0.2586,0.2606,0.26,0.2599,0.2598,0.2569,0.2566,0.2563,0,0,0,0,0,0.2472,0.2466,0.2475,0.2478,0.2501,0.2511,0.2514,0.2533,0.2543,0.254,0.2555,0.257,0.2585,0.2591,0.2593,0.2586,0.2601,0.2599,0.2598,0.2571,0.2567,0.2563,0,0,0,0,0,0,0.2442,0.2469,0.248,0.2481,0.2493,0.2516,0.2514,0.2528,0.2537,0.2539,0.2562,0.2567,0.2567,0.2577,0.2583,0.258,0.2595,0.2594,0.2573,0.2569,0.2566,0.2564,0.2607,0,0,0,0,0,0.2435,0.2441,0.2464,0.2463,0.2469,0.249,0.2495,0.2508,0.2522,0.2527,0.2542,0.2554,0.2562,0.2566,0.2574,0.2571,0.2575,0.2567,0.2564,0.2561,0.256,0.2558,0.2554,0.2592,0.2592,0.2592,0,0,0.2422,0.2437,0.244,0.2457,0.2468,0.2473,0.2494,0.2499,0.2503,0.2528,0.2532,0.2543,0.2558,0.2557,0.2558,0.2566,0.255,0.2559,0.2557,0.2557,0.2556,0.2552,0.2549,0.2591,0.2591,0.2592,0,0,0.24,0.2412,0.2412,0.2423,0.2439,0.2454,0.2453,0.2474,0.2482,0.2486,0.2505,0.2509,0.2522,0.2532,0.2538,0.2518,0.2532,0.252,0.2503,0.25,0.2497,0.2495,0.2487,0.2484,0.2519,0.2519,0.2519,0,0.2381,0.239,0.241,0.2414,0.242,0.2443,0.2443,0.2452,0.247,0.2474,0.2483,0.2498,0.251,0.2511,0.2506,0.2511,0.2511,0.2518,0.2496,0.2494,0.2492,0.2485,0.2482,0.2517,0.2517,0.2517,0.2518,0,0.2365,0.2371,0.2369,0.2386,0.2392,0.2393,0.2413,0.2417,0.243,0.2443,0.2446,0.246,0.2471,0.2473,0.2485,0.2476,0.248,0.2492,0.2507,0.2486,0.248,0.2478,0.2515,0.2515,0.2516,0.2516,0,0,0.2326,0.2354,0.2353,0.236,0.238,0.2384,0.2386,0.2397,0.2399,0.2411,0.2412,0.2422,0.2433,0.244,0.2453,0.2451,0.2434,0.2464,0.2464,0.2457,0.2424,0.2414,0.2411,0.2443,0.2443,0.2442,0.2422,0,0.2307,0.2313,0.2331,0.233,0.2335,0.2356,0.2358,0.2369,0.2381,0.2386,0.2399,0.2405,0.2419,0.2424,0.2423,0.2436,0.2427,0.2438,0.2444,0.2444,0.244,0.2408,0.2398,0.2379,0.242,0.242,0.2419,0,0.2286,0.2296,0.2296,0.2315,0.2317,0.2319,0.2329,0.2334,0.2348,0.2356,0.2364,0.2378,0.2381,0.2394,0.2397,0.2404,0.2407,0.2414,0.2414,0.2415,0.2431,0.2408,0.2373,0.237,0.2416,0.2416,0.2416,0,0.2257,0.227,0.2272,0.2278,0.23,0.23,0.2309,0.2322,0.2327,0.2337,0.234,0.2349,0.2354,0.236,0.2377,0.2386,0.2377,0.2393,0.2384,0.2384,0.2382,0.2382,0.2346,0.2384,0.2384,0.2384,0.2384,0,0.2234,0.2233,0.2259,0.226,0.2259,0.2279,0.2278,0.2289,0.23,0.2303,0.2322,0.2324,0.2346,0.235,0.2363,0.2363,0.2365,0.2371,0.2375,0.237,0.2369,0.2372,0.2374,0.2383,0.2383,0.2384,0.2384,0,0.2202,0.2219,0.2222,0.2242,0.2247,0.2246,0.2262,0.2264,0.2276,0.2279,0.2281,0.23,0.2306,0.2323,0.2334,0.2342,0.2338,0.2345,0.2334,0.2336,0.2326,0.2326,0.2292,0.2288,0.2328,0.2327,0.2327,0,0.2186,0.2186,0.2206,0.2209,0.2217,0.2222,0.2227,0.2247,0.2251,0.2265,0.2265,0.2272,0.2279,0.2287,0.2302,0.2309,0.2316,0.2303,0.2317,0.2312,0.2315,0.2315,0.2315,0.23,0.23,0.2299,0.2299,0,0.2156,0.2164,0.2171,0.2181,0.2187,0.2195,0.2205,0.2206,0.2228,0.2231,0.2238,0.2243,0.2253,0.226,0.227,0.2278,0.2292,0.2294,0.2293,0.2287,0.2281,0.2284,0.2325,0.2295,0.2295,0.2296,0.2296,0.2296,0.2131,0.2132,0.2145,0.2152,0.2161,0.217,0.2171,0.2184,0.219,0.22,0.221,0.2215,0.2227,0.2242,0.2249,0.2252,0.226,0.2257,0.2257,0.2256,0.2253,0.228,0.2254,0.2254,0.2255,0.2255,0.2255,0,0.2102,0.2112,0.2118,0.213,0.2135,0.2148,0.2159,0.2162,0.2166,0.2176,0.2183,0.2189,0.2196,0.221,0.2218,0.2218,0.2224,0.2219,0.2219,0.2221,0.2246,0.2247,0.2214,0.2214,0.2214,0.2214,0.2214,0.2214,0.2087,0.2088,0.2098,0.2103,0.2113,0.2118,0.2123,0.2131,0.2139,0.2145,0.2151,0.216,0.2172,0.218,0.2186,0.2191,0.2192,0.2185,0.2191,0.2215,0.2219,0.2223,0.2223,0.2185,0.2185,0.2165,0.2165,0.2164]},{"header":{"parameterUnit":"m.s-1","parameterCategory":1,"la1":30.2991,"la2":30.254,"lo1":-89.0895,"lo2":-89.0444,"dy":0.0017,"dx":0.0017,"nx":28,"ny":28,"refTime":"2024-07-23T03:00:00:Z","depth":0,"parameterNumber":3,"parameterNumberName":"V-component_of_WINDS"},"data":[0,0,0,0,0,0,0,0,0,0,0,0,0,0,0,0,0,0,0,0,0,0,0,0,0,0,0,0,0,0,0,0,0,0,0,0,0,0,0,0,0,0,0,0,0,0,0,0,0,0,0,0,0,0,0,0,0,0,4.5997,4.5997,0,4.5982,4.5982,4.5982,4.5948,4.5947,4.5946,4.5945,4.593,4.5931,4.5931,0,0,0,0,0,0,0,0,0,0,0,0,0,4.5997,4.5997,4.5997,4.5997,4.5997,4.5982,4.5982,4.5982,4.5948,4.5947,4.5946,4.5945,4.593,4.5931,4.5931,0,0,0,0,0,0,0,0,0,0,0,0,0,4.5991,4.5997,4.5997,4.5978,4.5976,4.5982,4.5982,4.5982,4.5948,4.5947,4.5946,4.5945,4.593,4.5931,4.5931,4.5954,0,0,4.5932,4.5932,0,0,0,0,0,0,0,0,4.5991,4.5991,4.5981,4.5979,4.5977,4.5966,4.5976,4.5972,4.5948,4.5959,4.5945,4.5944,4.5943,4.5942,4.5942,4.5954,4.5953,4.5932,4.5932,4.5932,4.5933,0,0,0,0,0,0,0,4.5992,4.5991,4.5991,4.5981,4.5979,4.597,4.5968,4.5975,4.5957,4.5958,4.5955,4.5954,4.5942,4.5941,4.5941,4.5953,4.5932,4.5932,4.5933,4.5933,4.5984,4.5985,0,0,0,0,0,0,4.5995,4.5992,4.5992,4.5991,4.5982,4.5971,4.5969,4.597,4.5957,4.5954,4.5955,4.5952,4.5941,4.5941,4.594,4.5967,4.5932,4.5933,4.5933,4.5983,4.5984,4.5985,0,0,0,0,0,0,4.5995,4.5995,4.5992,4.5991,4.599,4.5972,4.5974,4.5971,4.597,4.5954,4.5951,4.5958,4.594,4.594,4.5951,4.5966,4.5933,4.5933,4.5981,4.5983,4.5985,4.6022,0,0,0,0,0,0,4.5995,4.5995,4.6004,4.5991,4.599,4.6003,4.5975,4.5971,4.5971,4.5968,4.5956,4.5954,4.594,4.5951,4.5952,4.5966,4.5934,4.598,4.5982,4.5984,4.6019,4.6024,4.6029,0,0,0,0,0,4.5995,4.6015,4.6005,4.6005,4.6,4.6004,4.6003,4.5987,4.5972,4.5981,4.5971,4.5954,4.5965,4.5952,4.5953,4.5968,4.5979,4.5982,4.5984,4.6017,4.6023,4.6029,0,0,0,0,0,0,4.603,4.6013,4.6001,4.6017,4.6012,4.5998,4.6009,4.5994,4.5993,4.599,4.597,4.5968,4.5982,4.5976,4.5963,4.599,4.5969,4.5972,4.5994,4.6,4.6005,4.6006,4.5934,0,0,0,0,0,4.6039,4.6044,4.6029,4.6044,4.6042,4.6026,4.6027,4.6015,4.6009,4.6007,4.5998,4.5993,4.5995,4.5997,4.5998,4.6018,4.6015,4.6029,4.6034,4.6038,4.6041,4.6051,4.6057,4.5994,4.5994,4.5994,0,0,4.6059,4.605,4.6054,4.6051,4.6046,4.6051,4.6025,4.6031,4.6035,4.6008,4.6018,4.6011,4.6005,4.6021,4.6027,4.6016,4.6057,4.6041,4.6044,4.6045,4.6054,4.606,4.6066,4.5995,4.5995,4.5995,0,0,4.6098,4.6091,4.6104,4.6099,4.6092,4.6081,4.6084,4.6072,4.6067,4.6077,4.6057,4.6061,4.6065,4.6062,4.606,4.6098,4.6083,4.6099,4.6126,4.6136,4.6141,4.6146,4.616,4.6165,4.6102,4.6102,4.6102,0,4.6123,4.613,4.6112,4.612,4.612,4.6095,4.6108,4.6105,4.6098,4.6099,4.6086,4.6092,4.6085,4.61,4.611,4.6109,4.6112,4.6101,4.6142,4.6146,4.615,4.6163,4.6169,4.6104,4.6104,4.6104,4.6104,0,4.6162,4.6168,4.6179,4.6173,4.6174,4.6184,4.6168,4.6171,4.6159,4.6149,4.616,4.6152,4.6151,4.6154,4.6142,4.6167,4.6161,4.6146,4.6124,4.6158,4.6171,4.6176,4.6107,4.6106,4.6106,4.6105,0,0,4.6222,4.6207,4.6211,4.6209,4.6199,4.6203,4.6213,4.6212,4.6215,4.6212,4.622,4.6224,4.621,4.6209,4.6196,4.6206,4.6237,4.6189,4.6189,4.6199,4.6266,4.6278,4.6284,4.6227,4.6228,4.6228,4.6267,0,4.6259,4.6274,4.6259,4.6278,4.6283,4.626,4.6268,4.6264,4.6255,4.6259,4.6249,4.6253,4.6234,4.6233,4.6241,4.6232,4.625,4.6229,4.6235,4.6235,4.6238,4.629,4.6303,4.6339,4.6271,4.6272,4.6273,0,4.6304,4.6303,4.6322,4.6312,4.6314,4.6322,4.632,4.6324,4.6318,4.6311,4.631,4.6295,4.6304,4.6283,4.6295,4.6281,4.6282,4.6278,4.6279,4.628,4.6256,4.6293,4.635,4.6356,4.628,4.6279,4.6279,0,4.6347,4.635,4.6362,4.6361,4.6349,4.6355,4.635,4.6344,4.6345,4.6344,4.6344,4.6344,4.6344,4.6345,4.633,4.6316,4.6345,4.6322,4.634,4.6341,4.6348,4.6348,4.6407,4.6348,4.6348,4.6348,4.6347,0,4.639,4.6403,4.6381,4.6389,4.6403,4.6385,4.64,4.6393,4.6387,4.6393,4.6373,4.6379,4.636,4.6364,4.6353,4.6365,4.6365,4.6361,4.6357,4.6363,4.6364,4.6364,4.6361,4.6349,4.6349,4.6348,4.6348,0,4.644,4.6426,4.6438,4.6426,4.6423,4.6434,4.6424,4.6431,4.6421,4.643,4.643,4.6415,4.6419,4.6405,4.6407,4.6399,4.6418,4.641,4.642,4.6418,4.6437,4.6436,4.65,4.6508,4.6442,4.6443,4.6444,0,4.6469,4.6478,4.6467,4.647,4.6467,4.6471,4.6472,4.6455,4.6457,4.6452,4.6459,4.6462,4.6463,4.6471,4.646,4.6461,4.6454,4.6476,4.6454,4.6459,4.6455,4.6455,4.6457,4.6481,4.6482,4.6483,4.6483,0,4.6522,4.6514,4.6517,4.6517,4.6519,4.6518,4.6516,4.6519,4.65,4.6504,4.6508,4.6509,4.651,4.6513,4.6513,4.6508,4.6493,4.649,4.6494,4.65,4.6506,4.6504,4.6434,4.6489,4.6488,4.6488,4.6488,4.6487,4.6563,4.657,4.6564,4.6568,4.6564,4.6563,4.6569,4.656,4.6563,4.6563,4.6553,4.6559,4.6554,4.6551,4.6548,4.6553,4.6543,4.6549,4.6551,4.6553,4.6557,4.6505,4.6553,4.6553,4.6553,4.6552,4.6552,0,4.6615,4.661,4.6613,4.6611,4.6614,4.6599,4.6596,4.66,4.6606,4.6602,4.6603,4.6609,4.6611,4.6601,4.6603,4.6609,4.6602,4.661,4.661,4.6609,4.6565,4.6562,4.6616,4.6616,4.6616,4.6616,4.6616,4.6616,4.6643,4.6656,4.6648,4.6659,4.6654,4.666,4.666,4.6658,4.6655,4.6662,4.6664,4.6658,4.6652,4.6653,4.6655,4.6652,4.6654,4.6664,4.6659,4.6618,4.6612,4.6606,4.6603,4.6665,4.6665,4.6703,4.6703,4.6703]}]]